Location: Cudham
(51.3000°N, 0.0667°E)
Time: 00:40:16
(UTC+00:00)

Cosmos 2237 - Pass Details

Date: 19 May 2025
Orbit: 847 x 854 km, 70.8° (Epoch: 18 June)

Event Time Altitude Azimuth Distance (km) Brightness Sun altitude
Rises 22:49:04 0° 328° (NNW) 3,423 8.9 -17.2°
Reaches altitude 10° 22:51:31 10° 327° (NNW) 2,483 7.8 -17.3°
Maximum altitude 22:57:13 75° 243° (WSW) 881 4.2 -17.5°
Enters shadow 23:00:06 30° 164° (SSE) 1,474 4.9 -17.7°
